Temperature
19 20 21 22 22 20 20 19 20 20 20 21 20 20 20 21 21 21 21 22 22 22 22 22 22 22 21 21 21 20 20 20 20 20 19 19 19 19 19 18 18 18 18 18
20 20 21 21 21 21 21 20 20 21 20 20 20 20 20 21 21 21 21 22 22 22 22 22 22 22 21 21 21 20 20 20 20 20 19 19 19 19 18 18 18 18 18 18
18 19 21 21 21 21 21 21 20 20 21 19 19 19 20 21 21 21 22 22 22 22 22 22 22 22 21 21 21 20 20 20 20 19 19 19 19 19 18 18 18 18 18 18
16 19 20 20 20 21 21 20 19 20 19 19 19 20 21 22 22 22 22 22 22 22 22 22 21 21 21 21 20 20 20 20 19 19 19 19 19 18 18 18 18 18 17 17
14 17 18 20 20 20 20 20 19 19 19 18 19 19 20 21 21 22 22 22 22 22 22 22 21 21 21 20 20 20 20 19 19 19 19 19 18 18 18 18 18 18 17 17
14 17 18 19 20 20 20 20 19 18 18 17 18 18 19 21 21 21 21 21 22 22 21 21 21 20 20 20 20 20 20 20 19 19 19 19 18 18 18 18 18 17 17 17
14 16 17 18 18 20 20 20 19 19 18 18 18 19 20 20 20 21 21 21 21 21 21 21 20 20 20 20 20 20 19 19 19 19 19 18 18 18 18 18 17 17 17 17
13 16 17 17 18 18 18 18 19 19 19 18 19 20 20 20 20 20 20 20 20 20 20 20 20 20 20 20 20 19 19 19 19 18 18 18 18 18 17 17 17 17 17 16
14 15 15 16 16 17 18 18 18 19 19 19 19 19 20 20 19 19 20 20 20 20 20 20 20 20 20 19 19 19 18 18 18 18 18 18 17 17 17 17 17 17 16 16
13 14 15 16 17 17 18 18 18 19 19 19 19 19 19 19 19 19 19 19 19 19 19 19 19 19 19 19 19 18 18 18 18 18 18 17 17 17 16 16 16 16 16 16
12 13 14 16 17 17 17 18 18 18 18 18 18 18 18 18 19 19 19 19 19 19 19 19 18 18 18 18 18 18 18 18 17 17 17 17 17 16 16 16 16 16 16 15
13 13 13 14 16 16 17 17 17 17 17 17 18 18 18 18 18 18 18 18 18 18 18 18 18 18 18 18 18 18 17 17 17 17 16 16 16 16 15 15 15 15 15 15
15 15 14 15 15 16 16 16 17 17 17 17 17 17 17 17 17 18 18 18 18 18 18 17 17 17 17 17 17 17 17 17 16 16 16 15 15 15 15 15 15 15 14 14
14 14 14 15 15 15 16 16 16 16 16 17 16 16 17 17 17 17 17 17 17 17 17 17 17 16 16 16 16 16 16 16 16 16 15 15 15 15 15 14 14 14 14 14
14 14 14 14 15 15 15 15 15 15 16 16 16 17 17 16 16 16 16 16 16 17 16 16 16 16 16 16 16 16 16 15 15 15 15 15 15 14 14 14 14 14 14 14
14 14 14 14 14 14 14 14 14 14 15 15 15 16 16 16 16 16 16 16 16 16 16 16 16 16 15 15 15 15 15 15 15 15 14 14 14 14 14 14 14 14 14 14
13 13 13 13 13 13 14 14 14 14 14 14 15 15 15 15 15 15 15 16 16 15 15 15 15 15 15 15 15 15 15 14 14 14 14 14 14 14 14 14 14 13 13 13
13 13 13 13 13 13 13 14 14 14 14 14 14 14 14 15 15 15 15 15 15 15 15 15 15 15 15 14 15 15 14 14 14 14 14 14 14 14 13 13 13 13 13 13
13 13 13 13 13 13 13 13 14 14 14 14 14 14 14 14 14 14 14 14 14 14 15 15 15 14 14 14 14 14 14 14 14 14 14 14 13 13 13 13 13 13 13 13
13 13 13 12 13 13 13 13 13 13 13 13 13 13 13 13 14 14 14 14 14 14 14 14 14 14 14 14 14 14 14 14 13 13 13 13 13 13 13 13 13 13 13 12
12 12 12 12 12 13 13 13 13 13 13 13 13 13 13 13 13 13 13 13 13 13 13 13 14 14 14 14 13 13 13 13 13 13 13 13 13 13 13 13 12 12 12 12
12 12 12 12 12 12 12 12 12 12 12 12 12 12 12 12 12 12 12 13 13 13 13 13 13 13 13 13 13 13 13 13 13 13 13 13 12 12 12 12 12 12 12 12
11 11 11 12 12 12 12 12 12 12 12 12 12 12 12 12 12 12 12 12 12 12 13 13 13 13 13 13 12 12 12 12 12 12 12 12 12 12 12 12 12 12 12 11
11 11 11 12 12 12 11 12 12 12 12 12 12 12 12 12 12 12 12 12 12 12 12 12 12 12 12 12 12 12 12 12 12 12 12 12 12 12 12 12 12 11 11 11
11 11 11 11 11 11 11 11 11 12 12 12 12 12 12 12 12 12 12 12 12 12 12 12 12 12 12 12 12 12 12 12 12 12 12 12 12 12 11 11 11 11 11 11
11 11 11 11 12 11 11 11 11 11 11 11 11 11 11 11 11 11 11 11 11 11 11 11 12 12 12 12 12 12 12 11 11 11 11 11 11 11 11 11 11 11 10 10
11 11 11 11 11 11 11 11 11 11 11 11 11 11 11 11 11 11 11 11 11 11 11 11 11 11 11 11 11 11 11 11 11 11 11 11 11 11 11 10 10 10 10 10
Wind_Speed
4 4 4 4 4 6 6 8 9 9 8 9 8 8 6 5 6 6 6 6 7 7 6 6 7 7 7 7 7 7 7 7 6 5 5 4 4 4 4 4 4 4 3 2
0 1 3 3 5 7 6 5 6 5 7 7 3 3 3 5 7 7 7 7 8 7 7 8 8 8 8 8 8 8 8 7 6 5 5 5 4 4 4 3 3 3 3 3
2 2 1 4 6 7 5 4 6 8 8 2 3 6 8 8 8 8 8 7 8 9 8 8 8 8 9 8 8 8 7 6 6 5 5 4 4 4 4 3 2 2 3 3
2 2 5 8 3 4 5 4 4 4 4 5 6 5 4 5 7 6 7 7 7 8 7 7 7 7 7 7 7 8 7 7 6 6 5 4 4 4 3 2 2 2 3 3
4 4 5 6 1 3 4 4 3 4 2 1 2 3 1 1 3 5 6 6 6 6 6 6 7 7 8 7 7 7 7 7 7 7 6 6 5 5 4 3 3 3 2 2
4 5 7 7 3 2 4 3 3 3 3 2 4 2 4 2 1 2 2 3 4 5 6 6 6 7 8 7 7 7 7 7 6 7 7 7 6 5 4 3 3 3 2 2
5 5 7 6 5 1 6 7 3 3 4 5 5 5 3 3 2 3 2 4 5 6 6 5 6 7 8 7 7 6 5 5 6 6 6 6 5 4 4 4 3 3 2 1
5 5 7 4 1 3 5 3 2 2 3 5 2 1 4 5 4 4 4 4 6 6 5 5 6 7 7 6 5 4 5 5 5 5 5 5 5 4 4 4 4 3 2 1
7 7 4 2 2 3 2 2 2 2 2 3 2 2 3 4 4 3 4 4 5 6 5 4 5 6 6 4 5 6 6 5 4 4 4 4 5 5 4 4 4 3 3 3
2 4 4 3 3 3 1 1 2 1 1 2 2 3 3 4 3 3 3 4 4 6 6 4 3 4 5 5 6 7 6 5 4 4 4 3 3 3 4 3 4 3 3 3
2 5 5 4 3 3 3 3 3 3 2 2 3 3 3 3 3 3 3 3 4 5 6 5 4 4 4 5 7 7 6 5 4 4 4 3 3 2 3 4 5 5 4 4
6 6 4 5 5 3 2 2 1 2 2 2 2 2 2 2 2 3 3 3 3 3 4 4 4 4 4 4 6 7 5 4 4 3 3 3 3 1 1 1 2 4 5 4
6 5 5 6 5 3 3 3 2 0 1 1 1 1 2 1 1 2 3 4 4 4 4 3 3 3 3 4 5 6 6 5 4 4 3 3 3 3 2 1 2 1 2 4
5 4 4 5 5 4 3 2 0 1 1 2 2 2 2 2 2 2 2 2 3 4 4 4 4 3 2 4 5 5 5 5 5 4 4 4 4 3 3 2 1 1 1 1
7 6 7 5 4 4 2 1 1 0 1 1 2 2 3 2 2 1 1 2 3 5 4 4 4 3 3 4 5 5 4 4 4 4 4 4 3 3 3 3 2 1 0 1
6 5 4 4 4 3 3 3 3 3 2 2 2 2 3 3 2 1 1 3 4 4 4 4 3 2 3 5 5 4 3 5 5 4 4 4 3 3 3 3 3 2 2 2
6 6 5 5 5 5 5 5 5 4 3 3 3 3 3 3 2 2 1 2 3 4 4 4 4 3 3 4 5 4 4 4 5 4 3 4 3 4 3 3 3 3 2 3
8 8 8 7 6 5 4 4 4 4 3 4 4 3 3 3 4 3 3 2 3 1 2 3 4 4 3 4 4 4 4 4 4 3 3 3 3 3 3 3 3 3 2 2
5 6 6 5 5 5 4 4 4 4 4 4 4 4 3 2 2 3 3 4 3 2 2 2 4 4 4 4 4 3 4 4 3 3 3 3 3 3 3 3 3 2 2 2
3 4 4 4 4 4 4 4 4 4 4 5 5 4 3 2 2 3 3 2 3 3 3 2 3 3 3 4 5 4 4 4 4 4 3 3 3 3 3 3 3 3 3 3
3 3 4 4 3 3 4 4 4 4 3 4 5 5 4 2 2 2 3 2 2 2 2 3 2 2 2 3 4 4 4 4 4 4 3 3 3 3 3 3 3 3 3 3
2 3 4 4 4 3 2 3 4 4 4 3 4 4 4 3 2 1 1 3 3 3 3 2 2 3 3 3 3 4 4 4 3 3 3 3 3 3 3 3 3 3 3 4
2 3 3 3 4 3 2 2 3 3 4 4 5 5 4 3 2 2 2 2 2 3 2 2 2 4 4 3 3 3 4 3 3 3 3 3 3 4 4 4 4 3 3 3
2 2 3 3 3 3 2 1 2 2 2 3 3 4 4 3 1 2 2 2 3 3 2 2 3 4 4 3 3 3 3 3 3 3 3 3 3 3 3 3 3 3 3 3
2 2 3 4 3 3 3 2 2 2 2 2 2 2 2 3 3 2 2 2 2 2 1 1 3 4 3 2 3 3 3 3 3 3 3 3 3 3 2 2 3 2 2 2
1 2 2 2 2 3 3 3 2 2 3 2 1 1 1 1 2 1 1 2 2 2 1 1 2 3 2 3 3 3 2 2 2 2 3 3 2 2 2 2 2 2 2 2
2 1 2 1 1 2 3 3 3 3 3 4 2 1 1 1 2 2 2 1 1 1 1 1 1 2 2 2 2 2 2 1 1 1 2 2 2 2 2 2 2 2 2 2
Wind_Direction
218 218 187 194 199 177 181 184 184 218 220 240 234 222 216 191 173 164 165 171 177 177 176 171 169 171 171 172 166 165 165 178 194 192 177 173 177 184 187 188 191 186 177 182
280 242 203 216 225 199 199 188 203 214 242 248 230 183 190 192 178 177 180 182 181 178 174 173 173 173 169 172 168 161 168 181 183 175 171 176 179 180 181 187 186 176 177 179
224 289 89 243 225 198 194 192 179 206 232 228 206 205 201 197 188 188 188 186 185 184 182 182 181 175 174 176 167 165 172 175 173 172 175 182 176 166 177 185 180 179 188 179
149 107 206 238 242 187 177 201 208 227 236 214 215 216 211 193 187 190 189 187 190 187 186 183 174 168 165 161 163 168 173 178 177 175 177 173 166 174 180 174 175 187 192 187
138 179 259 290 249 160 177 237 227 214 243 245 122 81 329 210 185 196 193 186 183 178 174 168 166 165 157 160 164 170 180 185 184 179 177 175 181 188 183 173 183 190 182 183
139 164 218 239 271 268 143 245 255 187 193 161 115 145 249 223 145 140 152 154 153 147 142 152 162 157 157 164 167 181 190 187 179 176 177 181 187 186 177 175 189 184 179 182
164 196 248 260 294 90 161 231 260 203 191 179 191 207 215 157 135 133 124 135 139 137 139 150 153 153 158 164 183 193 180 166 165 170 175 176 175 173 168 172 170 169 172 189
155 182 242 297 29 164 220 273 252 216 202 200 220 121 128 138 138 134 114 124 137 138 139 139 144 147 154 170 176 158 154 156 162 164 170 168 164 167 165 165 165 170 173 223
189 208 246 286 254 274 245 255 264 236 222 185 165 151 136 136 135 133 124 122 133 135 134 132 139 145 153 167 150 143 143 149 151 147 153 157 163 167 160 164 174 185 191 215
251 271 286 296 305 322 312 277 283 233 174 149 152 158 148 138 135 130 122 125 129 135 137 143 148 145 158 156 148 142 144 146 145 146 150 150 153 159 165 178 188 192 202 220
258 283 312 318 321 322 343 8 31 35 68 111 123 138 151 149 146 139 127 124 139 152 153 159 159 154 154 151 146 143 142 140 142 148 152 152 156 172 183 202 201 194 208 209
223 227 218 258 282 310 338 340 11 44 32 48 101 134 125 132 137 134 127 115 120 134 142 151 154 150 148 150 146 144 146 149 152 150 151 153 150 108 54 194 207 204 207 207
225 236 238 254 274 278 276 281 293 88 137 115 68 112 111 103 94 102 117 131 147 157 149 144 141 146 153 151 148 151 156 158 157 155 154 158 162 169 179 13 46 135 218 219
239 236 255 257 260 276 266 258 328 67 119 129 127 116 110 103 101 112 137 161 151 142 141 140 139 153 160 150 149 155 155 157 158 164 171 176 180 183 181 180 202 317 324 231
252 234 231 245 258 260 243 192 108 229 159 121 117 126 128 140 157 186 178 157 140 132 134 135 135 153 155 148 149 155 157 159 163 169 172 175 175 173 179 184 192 210 328 3
246 241 228 222 227 231 210 192 205 231 213 164 150 168 166 163 164 188 167 149 142 150 154 150 153 178 162 154 156 160 172 170 167 169 170 168 168 175 188 192 193 200 218 230
218 222 215 209 215 221 219 207 197 202 196 182 195 190 161 144 138 154 168 158 161 168 169 171 174 175 163 167 166 169 171 174 168 166 176 179 179 188 195 199 203 211 227 221
213 211 206 204 204 204 214 207 188 185 189 190 176 171 170 163 169 178 167 136 125 131 180 187 175 160 173 183 171 171 171 173 173 174 178 184 188 193 196 200 207 213 228 219
205 202 203 204 204 193 197 201 193 189 180 170 160 163 164 171 179 165 149 136 143 191 243 204 171 163 172 188 176 169 167 168 175 185 188 186 188 191 195 200 206 212 218 225
197 191 186 193 192 186 193 192 178 168 162 154 146 142 148 166 156 143 138 154 201 220 221 191 168 167 173 176 167 165 171 178 186 193 195 195 195 202 204 206 209 219 225 230
192 181 176 177 177 177 181 177 166 161 157 153 153 160 170 168 152 148 149 190 238 208 191 186 185 180 179 171 160 161 170 180 188 193 197 202 203 205 208 212 217 224 229 234
189 171 173 164 146 142 156 160 160 160 158 159 164 160 153 155 157 155 224 219 216 182 171 176 184 182 181 171 161 161 169 179 188 194 197 201 206 210 214 216 223 229 232 233
166 154 158 157 147 148 140 141 159 169 173 178 169 160 166 186 186 184 241 241 201 171 163 173 172 163 162 163 164 166 173 184 191 197 202 205 209 211 215 221 222 225 232 235
138 151 156 144 132 133 145 195 187 175 165 168 173 174 173 175 212 237 229 216 182 161 156 175 176 170 158 165 167 169 177 187 193 199 201 204 212 217 220 222 226 228 229 233
146 140 132 131 139 162 177 170 135 125 130 137 147 169 182 184 191 204 193 176 164 155 163 174 173 170 166 167 170 175 185 197 200 198 204 211 220 226 232 233 227 223 229 239
147 151 153 165 175 182 164 149 151 161 151 144 150 174 167 163 165 170 167 156 144 157 176 184 179 176 174 175 178 181 188 194 203 213 217 223 225 224 226 227 228 229 232 236
89 106 113 115 134 155 150 154 166 176 171 162 162 180 169 162 155 166 175 163 150 158 182 185 167 157 157 160 164 171 180 188 196 211 220 221 220 217 221 227 237 241 238 234
Height
1481 1478 1478 1479 1480 1483 1487 1490 1497 1492 1489 1478 1473 1472 1472 1473 1476 1478 1479 1482 1484 1486 1489 1492 1496 1499 1502 1505 1508 1512 1514 1516 1518 1521 1522 1524 1526 1528 1529 1530 1531 1532 1532 1533
1482 1477 1477 1478 1476 1477 1479 1481 1484 1482 1481 1470 1468 1470 1471 1472 1474 1475 1477 1480 1482 1485 1487 1490 1493 1496 1499 1502 1505 1508 1511 1513 1516 1518 1520 1522 1524 1525 1526 1527 1528 1529 1530 1531
1490 1482 1478 1485 1474 1474 1474 1473 1476 1480 1473 1468 1468 1467 1467 1469 1471 1473 1475 1477 1480 1482 1485 1487 1490 1493 1496 1499 1503 1505 1508 1511 1513 1516 1518 1519 1521 1522 1524 1525 1526 1527 1528 1529
1494 1488 1495 1478 1464 1465 1468 1469 1469 1468 1466 1465 1464 1463 1465 1467 1468 1470 1473 1475 1478 1480 1483 1486 1488 1491 1494 1497 1500 1503 1505 1508 1511 1513 1515 1517 1518 1519 1521 1522 1523 1524 1525 1526
1498 1496 1488 1472 1464 1465 1468 1469 1464 1465 1464 1463 1463 1464 1465 1466 1467 1469 1471 1473 1476 1478 1481 1484 1486 1489 1492 1495 1497 1500 1502 1505 1508 1510 1512 1514 1515 1517 1518 1519 1520 1522 1523 1524
1494 1493 1493 1473 1461 1460 1464 1471 1462 1462 1462 1463 1463 1469 1465 1464 1465 1468 1470 1473 1475 1477 1479 1482 1485 1488 1490 1492 1495 1497 1499 1502 1505 1507 1509 1511 1513 1515 1516 1517 1518 1520 1520 1521
1490 1489 1481 1465 1460 1459 1474 1470 1460 1459 1460 1461 1461 1461 1461 1462 1464 1466 1468 1471 1473 1475 1477 1480 1483 1485 1488 1490 1492 1495 1498 1500 1502 1505 1507 1509 1511 1512 1514 1515 1516 1517 1518 1519
1488 1488 1481 1462 1460 1463 1464 1458 1458 1457 1457 1458 1458 1459 1460 1461 1463 1465 1467 1469 1471 1474 1475 1478 1481 1483 1485 1487 1491 1494 1496 1498 1500 1502 1504 1506 1508 1509 1511 1512 1513 1514 1515 1516
1475 1473 1464 1461 1461 1460 1458 1457 1456 1456 1456 1456 1457 1457 1458 1460 1462 1464 1466 1468 1470 1473 1475 1477 1479 1481 1483 1486 1489 1491 1494 1496 1498 1500 1501 1503 1505 1506 1507 1509 1510 1511 1511 1512
1469 1464 1461 1460 1459 1458 1457 1456 1455 1455 1455 1455 1456 1456 1458 1459 1461 1463 1464 1466 1469 1472 1474 1476 1478 1480 1483 1485 1487 1489 1491 1493 1495 1497 1499 1500 1502 1504 1505 1506 1507 1507 1508 1509
1466 1463 1460 1458 1457 1457 1456 1455 1454 1454 1455 1455 1455 1456 1457 1458 1460 1461 1463 1466 1468 1470 1472 1475 1478 1480 1482 1484 1485 1487 1488 1491 1493 1495 1497 1498 1500 1501 1502 1504 1505 1505 1506 1507
1463 1459 1460 1458 1456 1456 1455 1454 1454 1454 1455 1456 1456 1456 1457 1458 1460 1461 1463 1465 1468 1470 1472 1474 1476 1478 1480 1482 1484 1485 1487 1489 1491 1493 1494 1496 1497 1498 1500 1502 1503 1503 1504 1504
1455 1456 1456 1455 1454 1454 1454 1454 1453 1453 1454 1455 1456 1457 1457 1459 1460 1462 1464 1465 1467 1469 1471 1473 1475 1477 1479 1481 1482 1484 1485 1487 1489 1490 1492 1493 1495 1496 1498 1499 1500 1500 1501 1501
1451 1453 1452 1452 1452 1452 1452 1452 1453 1452 1453 1454 1455 1457 1457 1459 1460 1462 1464 1465 1466 1468 1470 1472 1474 1476 1478 1480 1481 1483 1484 1485 1486 1488 1490 1492 1493 1494 1495 1496 1497 1497 1498 1498
1447 1448 1448 1448 1448 1449 1450 1450 1450 1451 1452 1452 1453 1455 1456 1458 1460 1461 1463 1464 1466 1467 1469 1471 1473 1475 1477 1479 1480 1481 1483 1483 1485 1487 1489 1490 1491 1492 1493 1494 1494 1495 1495 1495
1442 1443 1444 1444 1444 1445 1447 1447 1448 1449 1450 1451 1452 1454 1456 1457 1459 1460 1461 1463 1464 1465 1467 1469 1470 1473 1476 1477 1479 1480 1482 1483 1484 1485 1486 1488 1489 1490 1491 1491 1491 1492 1492 1493
1436 1437 1439 1440 1441 1442 1443 1444 1445 1446 1448 1450 1451 1453 1455 1456 1457 1459 1460 1462 1463 1464 1466 1468 1469 1472 1473 1476 1477 1478 1480 1481 1483 1484 1484 1485 1486 1487 1488 1489 1489 1489 1490 1490
1431 1433 1435 1437 1438 1439 1440 1442 1443 1444 1446 1448 1450 1452 1454 1454 1455 1457 1458 1460 1461 1462 1464 1466 1467 1469 1472 1474 1475 1477 1478 1479 1480 1481 1482 1483 1484 1485 1486 1486 1487 1487 1487 1487
1429 1430 1432 1434 1435 1436 1438 1439 1440 1443 1445 1447 1449 1450 1452 1453 1454 1455 1457 1458 1459 1460 1462 1464 1466 1468 1470 1472 1473 1474 1475 1477 1478 1479 1480 1481 1482 1483 1483 1484 1484 1484 1484 1484
1427 1428 1429 1431 1432 1434 1435 1437 1438 1440 1442 1445 1446 1448 1450 1451 1453 1454 1454 1455 1457 1458 1460 1462 1464 1466 1467 1469 1470 1471 1473 1474 1476 1477 1478 1479 1479 1480 1481 1481 1481 1481 1481 1481
1425 1426 1427 1428 1430 1432 1434 1435 1437 1438 1440 1443 1444 1446 1447 1449 1451 1452 1452 1453 1455 1457 1458 1460 1461 1462 1464 1466 1467 1468 1470 1471 1473 1474 1475 1476 1477 1477 1477 1478 1478 1478 1478 1478
1423 1424 1425 1427 1428 1430 1433 1434 1436 1438 1439 1441 1443 1444 1446 1448 1449 1450 1450 1452 1453 1455 1456 1457 1458 1459 1461 1463 1464 1466 1467 1469 1470 1471 1472 1473 1474 1474 1474 1474 1475 1475 1475 1475
1422 1423 1425 1426 1427 1430 1432 1434 1436 1437 1438 1440 1441 1443 1444 1446 1447 1448 1448 1450 1452 1453 1454 1455 1456 1458 1459 1460 1462 1463 1465 1466 1467 1468 1469 1470 1470 1471 1471 1471 1471 1471 1471 1471
1423 1424 1425 1426 1428 1429 1431 1433 1435 1436 1438 1439 1441 1442 1443 1444 1446 1447 1448 1449 1450 1451 1452 1453 1454 1455 1456 1458 1459 1461 1462 1463 1464 1465 1466 1466 1467 1467 1467 1467 1467 1467 1467 1467
1423 1424 1425 1426 1428 1429 1431 1433 1435 1436 1437 1439 1440 1442 1443 1444 1445 1445 1446 1447 1448 1449 1450 1451 1453 1454 1455 1456 1457 1458 1459 1460 1461 1462 1462 1463 1463 1463 1463 1463 1463 1463 1463 1463
1423 1424 1426 1427 1429 1430 1431 1432 1434 1435 1437 1438 1440 1441 1442 1443 1444 1444 1445 1446 1446 1447 1448 1449 1451 1452 1453 1454 1455 1456 1457 1458 1458 1459 1459 1459 1459 1459 1459 1459 1459 1459 1459 1459
1424 1425 1426 1428 1429 1430 1431 1432 1433 1434 1436 1437 1438 1439 1441 1442 1443 1443 1444 1445 1445 1446 1447 1448 1449 1450 1451 1452 1453 1453 1454 1455 1455 1455 1455 1455 1456 1456 1456 1455 1455 1455 1455 1454